User: anonymous   Login
Location: Holmes Observatory
(37.1039°N, 122.0513°W)
Time: 08:09:40
(UTC-07:00)
Language:

Cosmos 921 Rocket - Orbit

View from above orbital plane
View from above orbital plane
View from above satellite
View from above satellite

Ground track
Ground track

The orbit data is extracted from the following two-line orbital elements,

1 10096U 77055B   14302.07065049  .00000966  00000-0  10583-3 0  5741
2 10096 075.8348 267.9806 0042398 137.7227 293.8424 14.87936052 19126
Epoch (UTC): 29 October 2014 01:41:44
Eccentricity: 0.0042398
inclination: 75.8348°
perigee height: 575 km
apogee height: 634 km
right ascension of ascending node: 267.9806°
argument of perigee: 137.7227°
revolutions per day: 14.87936052
mean anomaly at epoch: 293.8424°
orbit number at epoch: 1912

The dashed part of the orbit path shows where the satellite is in the earth's shadow,  

DLR